Lid_Strength_Index
3 3 3 3 4 4 4 4 4 4 4 3 3 3 4 3 3 3 3 3 3 4 4 4 4 4 6 12 13 8 5 5 6 7 8 8 8 8 10 9 8 8 7 6 6 6 6
3 3 3 2 3 4 4 4 4 4 3 3 3 3 3 3 3 3 3 3 3 3 3 3 3 3 8 13 8 6 7 7 7 8 9 8 8 7 9 9 9 8 7 7 7 7 6
3 3 2 3 3 3 3 3 3 2 3 3 2 2 2 3 2 3 3 3 3 3 3 3 3 5 9 11 6 5 6 6 6 7 9 8 8 9 8 10 8 9 10 9 7 7 7
3 3 2 2 3 3 3 3 2 2 2 2 3 3 3 3 3 3 3 3 3 3 3 3 4 6 12 7 5 6 6 7 6 6 6 5 6 8 10 9 10 12 11 13 10 9 6
3 3 2 2 3 2 2 2 2 3 3 3 3 3 3 3 3 3 3 3 4 3 3 3 5 7 12 5 8 6 6 8 6 6 5 5 5 9 10 13 14 13 16 14 12 9 9
2 3 2 2 2 2 2 2 3 3 2 2 2 3 3 3 3 4 4 5 6 4 6 5 6 9 9 10 7 6 5 6 8 7 8 8 8 11 11 13 17 16 15 14 14 11 10
2 3 3 2 2 2 2 2 2 2 2 3 3 3 3 4 4 4 4 6 8 8 8 10 10 10 9 7 6 7 6 6 7 9 12 10 12 14 13 12 13 14 15 16 13 11 12
2 2 3 2 3 2 2 2 2 2 2 3 3 3 3 4 4 4 5 8 8 7 11 9 9 9 8 7 10 8 6 10 10 13 11 12 15 12 11 11 12 13 15 15 13 12 12
1 2 2 2 3 2 2 2 2 3 3 3 2 2 4 4 5 4 6 7 4 5 10 11 10 10 9 8 11 10 7 9 11 13 13 14 13 12 12 12 13 13 14 14 15 13 13
2 2 2 2 2 2 3 3 3 3 3 2 2 3 4 5 6 6 7 5 4 5 12 14 12 10 9 9 11 8 7 9 11 13 12 13 11 12 12 13 12 15 11 13 14 15 18
2 2 2 2 2 2 3 3 3 3 3 2 3 4 5 5 6 8 6 4 5 7 17 13 12 8 9 11 11 10 7 8 11 12 12 13 12 12 12 12 11 13 11 12 13 15 16
1 2 2 2 2 2 3 3 3 3 2 3 4 4 5 5 5 6 4 6 7 14 18 15 12 13 12 11 11 9 9 7 8 10 10 10 8 9 9 8 8 8 10 11 11 13 19
1 2 2 2 2 2 3 3 3 2 3 4 4 5 5 5 7 5 6 8 14 15 14 15 15 13 14 13 11 10 11 11 12 14 13 10 9 7 7 10 7 9 12 17 18 19 19
1 2 2 2 2 2 3 3 2 3 3 4 5 6 7 7 5 6 7 12 16 19 17 14 14 14 15 13 11 11 11 11 9 10 12 13 14 9 7 9 11 11 14 17 21 18 17
1 1 2 2 2 3 3 3 2 3 3 5 5 6 6 7 6 6 9 14 14 14 14 15 14 16 14 13 12 11 11 11 9 9 13 13 13 8 8 7 9 13 15 11 16 15 18
1 1 1 2 2 2 3 3 3 3 4 5 6 7 8 7 6 7 13 15 14 14 13 14 17 16 16 14 13 12 12 10 10 8 7 10 15 9 8 7 8 11 10 16 16 21 21
1 1 2 2 2 2 3 3 3 3 4 5 7 10 8 7 7 10 15 14 15 12 12 15 15 15 14 14 13 14 13 10 9 8 7 9 12 11 9 11 13 13 14 14 14 15 19
1 1 2 2 2 3 3 2 3 4 5 7 8 14 8 8 13 15 14 15 13 13 11 12 12 12 13 12 13 13 12 10 8 8 10 8 12 15 13 10 8 10 13 13 17 17 16
1 1 2 2 2 3 3 3 3 4 5 8 10 11 8 9 14 15 15 15 13 13 13 13 13 11 10 12 14 12 11 8 8 9 10 9 12 16 14 12 10 11 11 11 13 14 17
1 2 2 3 3 3 3 3 3 4 5 7 11 15 13 11 12 13 15 15 15 12 13 12 11 9 11 13 11 13 11 9 8 9 8 9 11 14 17 14 12 14 12 12 13 17 17
1 2 3 2 3 3 3 3 3 4 5 7 10 14 15 15 14 13 13 14 15 15 13 11 12 11 11 14 13 13 11 10 9 9 9 10 14 13 12 12 12 13 13 13 14 14 17
1 2 2 2 3 3 3 3 3 4 5 8 13 14 14 16 13 14 14 15 15 14 13 13 12 10 10 13 12 13 11 12 12 10 11 10 14 13 15 12 12 14 12 12 13 14 15
1 1 1 2 3 3 3 3 3 4 6 9 12 12 10 14 14 14 14 13 14 13 12 10 10 10 11 10 8 8 8 9 11 12 13 13 13 15 16 12 13 16 13 13 12 13 15
1 1 1 2 3 3 3 3 4 4 6 9 11 11 11 15 14 14 15 13 14 13 13 11 9 10 9 7 8 9 10 11 12 12 11 13 13 14 16 14 19 13 11 11 12 13 14
0 0 1 2 3 3 4 3 4 4 5 9 11 10 10 15 14 15 14 14 13 12 12 11 9 8 8 9 13 14 14 16 14 12 11 11 13 15 16 17 13 12 12 13 14 13 14
0 0 1 3 3 3 3 3 4 4 5 10 10 9 9 13 14 13 14 13 13 13 13 12 10 9 9 12 13 17 17 19 16 15 11 11 11 14 15 17 19 13 11 10 12 15 11
0 0 1 2 3 3 4 4 4 4 5 8 10 10 9 12 13 12 13 13 12 12 12 14 12 12 11 12 14 15 15 17 17 19 15 14 13 15 16 16 14 11 11 11 15 15 11
0 0 1 1 2 3 3 4 4 5 5 7 11 11 9 12 14 13 13 14 13 12 12 14 12 13 13 14 14 14 16 14 17 15 15 14 14 14 15 17 17 11 10 13 12 11 12
0 1 1 2 2 3 3 4 4 4 5 7 12 12 10 12 14 12 12 12 12 12 11 13 13 13 11 13 14 13 15 15 16 17 14 16 12 12 13 12 10 10 11 10 11 12 12